Weather reports worldwide

Advertisment
Alsancak, Cyprus (17572): temperature & dewpoint: 13.02.2018 07:00:00 - 19.02.2018 07:00:00 (EET)Alsancak, Cyprus (17572): wind speed: 13.02.2018 07:00:00 - 19.02.2018 07:00:00 (EET)Alsancak, Cyprus (17572): wind direction: 13.02.2018 07:00:00 - 19.02.2018 07:00:00 (EET)Alsancak, Cyprus (17572): reduced air pressure: 13.02.2018 07:00:00 - 19.02.2018 07:00:00 (EET)Alsancak, Cyprus (17572): visibility: 13.02.2018 07:00:00 - 19.02.2018 07:00:00 (EET)
Date & Time tt [°C] td [°C] ff [km/h] ff [kn] dd ppp [hPa] vv [km]
19.02.2018 07:00:00 - - - - - - -
19.02.2018 06:00:00 - - - - - - -
19.02.2018 05:00:00 11,6 3,9 8 4 S 1014,8 10
19.02.2018 04:00:00 - - - - - - -
19.02.2018 03:00:00 - - - - - - -
19.02.2018 02:00:00 11,4 4,6 9 5 SSW 1015,2 10
19.02.2018 01:00:00 - - - - - - -
19.02.2018 00:00:00 - - - - - - -
18.02.2018 23:00:00 15,9 7,0 11 6 W 1015,1 10
18.02.2018 22:00:00 15,8 7,0 11 6 WSW 1014,7 10
18.02.2018 21:00:00 15,0 4,4 8 4 WSW 1014,4 10
18.02.2018 20:00:00 14,6 8,8 11 6 SW 1014,4 10
18.02.2018 19:00:00 15,5 9,1 5 3 SSW 1014,0 10
18.02.2018 18:00:00 16,0 7,1 9 5 W 1013,3 10
18.02.2018 17:00:00 17,5 6,9 22 12 E 1013,1 10
18.02.2018 16:00:00 17,4 7,6 21 11 E 1012,7 10
18.02.2018 15:00:00 17,3 7,1 24 13 NE 1012,7 10
18.02.2018 14:00:00 17,7 7,2 13 7 ENE 1012,6 10
18.02.2018 13:00:00 17,5 7,9 11 6 ENE 1012,8 10
18.02.2018 12:00:00 17,8 7,3 28 15 NNW 1012,8 10
18.02.2018 11:00:00 17,6 8,3 37 20 NW 1012,9 10
18.02.2018 10:00:00 17,5 5,9 37 20 NE 1012,5 10
18.02.2018 09:00:00 17,6 4,8 29 16 N 1012,4 10
18.02.2018 08:00:00 14,1 6,1 0 0 N 1011,8 10
18.02.2018 07:00:00 16,3 6,6 11 6 SW 1011,0 10
18.02.2018 06:00:00 15,4 8,1 8 4 WSW 1010,5 10
18.02.2018 05:00:00 15,6 8,5 8 4 SSE 1010,2 10
18.02.2018 04:00:00 - - - - - - -
18.02.2018 03:00:00 - - - - - - -
18.02.2018 02:00:00 16,5 6,2 11 6 WSW 1008,0 10
18.02.2018 01:00:00 - - - - - - -
18.02.2018 00:00:00 - - - - - - -
17.02.2018 23:00:00 16,4 11,8 16 9 W 1009,4 10
17.02.2018 22:00:00 16,6 11,5 29 16 W 1009,3 10
17.02.2018 21:00:00 16,6 10,8 34 18 W 1009,5 10
17.02.2018 20:00:00 16,5 10,4 18 10 WSW 1009,9 10
17.02.2018 19:00:00 16,1 11,2 18 10 W 1010,3 10
17.02.2018 18:00:00 16,7 12,1 22 12 W 1010,4 10
17.02.2018 17:00:00 17,1 12,2 34 18 WNW 1010,3 10
17.02.2018 16:00:00 16,9 9,9 8 4 WNW 1010,6 10
17.02.2018 15:00:00 17,0 8,2 22 12 WSW 1011,0 10
17.02.2018 14:00:00 16,5 10,0 29 16 NE 1011,4 10
17.02.2018 13:00:00 14,4 11,5 0 0 N 1012,1 10
17.02.2018 12:00:00 16,5 11,0 44 24 E 1012,6 8
17.02.2018 11:00:00 16,5 10,4 37 20 NNE 1013,1 8
17.02.2018 10:00:00 15,7 11,3 0 0 N 1013,6 10
17.02.2018 09:00:00 15,2 11,0 11 6 E 1013,9 10
17.02.2018 08:00:00 16,5 10,1 41 22 ENE 1013,9 10
17.02.2018 07:00:00 16,5 11,0 41 22 ENE 1013,9 10
17.02.2018 06:00:00 16,5 11,0 34 18 E 1014,0 10
17.02.2018 05:00:00 16,7 11,0 37 20 E 1013,8 10
17.02.2018 04:00:00 - - - - - - -
17.02.2018 03:00:00 - - - - - - -
17.02.2018 02:00:00 17,0 11,8 48 26 E 1014,5 10
17.02.2018 01:00:00 - - - - - - -
17.02.2018 00:00:00 - - - - - - -
16.02.2018 23:00:00 17,1 11,3 48 26 E 1015,7 10
16.02.2018 22:00:00 17,3 11,6 8 4 E 1015,9 10
16.02.2018 21:00:00 17,1 11,4 11 6 E 1016,0 10
16.02.2018 20:00:00 17,2 11,5 15 8 ESE 1016,1 10
16.02.2018 19:00:00 17,5 11,3 34 18 ENE 1015,1 10
16.02.2018 18:00:00 17,6 12,1 48 26 E 1015,6 10
16.02.2018 17:00:00 17,4 12,1 44 24 ENE 1015,4 10
16.02.2018 16:00:00 17,3 12,0 29 16 E 1015,5 10
16.02.2018 15:00:00 17,1 11,0 44 24 ENE 1015,0 10
16.02.2018 14:00:00 17,2 10,9 48 26 E 1017,1 10
16.02.2018 13:00:00 17,0 11,4 50 27 ENE 1016,0 10
16.02.2018 12:00:00 17,0 - 55 30 E 1017,0 10
16.02.2018 11:00:00 17,2 11,1 48 26 E 1017,1 10
16.02.2018 10:00:00 17,2 10,6 41 22 E 1017,2 10
16.02.2018 09:00:00 16,9 10,5 34 18 E 1017,2 10
16.02.2018 08:00:00 16,2 10,5 13 7 E 1017,2 10
16.02.2018 07:00:00 16,2 10,6 13 7 ESE 1016,7 10
16.02.2018 06:00:00 16,5 10,8 13 7 E 1016,6 10
16.02.2018 05:00:00 16,2 10,2 15 8 SE 1016,5 10
16.02.2018 04:00:00 16,4 10,7 13 7 SE 1016,5 10
16.02.2018 03:00:00 16,3 10,7 8 4 ESE 1016,8 10
16.02.2018 02:00:00 16,4 10,8 9 5 ESE 1017,1 10
16.02.2018 01:00:00 16,6 11,3 9 5 SE 1017,6 10
16.02.2018 00:00:00 16,4 10,8 8 4 SE 1018,0 10
15.02.2018 23:00:00 16,1 10,6 8 4 SE 1018,2 10
15.02.2018 22:00:00 16,2 10,6 11 6 ESE 1018,4 10
15.02.2018 21:00:00 16,2 10,8 0 0 N 1018,4 10
15.02.2018 20:00:00 16,2 11,1 8 4 SSE 1018,4 10
15.02.2018 19:00:00 17,2 12,1 18 10 ENE 1018,4 10
15.02.2018 18:00:00 16,8 11,9 37 20 E 1018,4 10
15.02.2018 17:00:00 16,8 12,2 37 20 E 1018,4 10
15.02.2018 16:00:00 16,4 12,2 37 20 E 1018,8 10
15.02.2018 15:00:00 16,8 12,7 29 16 ENE 1018,8 10
15.02.2018 14:00:00 16,7 11,1 26 14 E 1019,1 10
15.02.2018 13:00:00 16,9 11,5 18 10 E 1020,7 10
15.02.2018 12:00:00 16,7 11,2 15 8 E 1020,9 10
15.02.2018 11:00:00 16,8 11,0 15 8 E 1021,4 10
15.02.2018 10:00:00 16,5 10,7 15 8 ENE 1021,4 10
15.02.2018 09:00:00 16,1 10,6 0 0 N 1021,7 10
15.02.2018 08:00:00 13,0 7,8 8 4 S 1021,5 10
15.02.2018 07:00:00 12,5 7,6 8 4 S 1021,1 10
15.02.2018 06:00:00 12,6 7,3 11 6 S 1021,3 10
15.02.2018 05:00:00 12,6 7,3 11 6 S 1021,1 10
15.02.2018 04:00:00 - - - - - - -
15.02.2018 03:00:00 - - - - - - -
15.02.2018 02:00:00 12,5 6,2 5 3 S 1021,5 10
15.02.2018 01:00:00 - - - - - - -
15.02.2018 00:00:00 - - - - - - -
14.02.2018 23:00:00 13,0 6,3 8 4 SSW 1022,1 10
14.02.2018 22:00:00 13,4 6,4 5 3 SSW 1022,1 10
14.02.2018 21:00:00 13,8 6,5 8 4 S 1022,1 10
14.02.2018 20:00:00 14,3 8,3 8 4 SSW 1022,0 10
14.02.2018 19:00:00 14,8 8,8 8 4 S 1021,9 10
14.02.2018 18:00:00 16,2 8,6 0 0 N 1021,1 10
14.02.2018 17:00:00 16,8 8,2 15 8 E 1020,8 10
14.02.2018 16:00:00 16,8 7,5 15 8 E 1020,8 10
14.02.2018 15:00:00 17,1 8,4 18 10 ESE 1020,5 10
14.02.2018 14:00:00 18,6 5,4 0 0 N 1020,4 10
14.02.2018 13:00:00 17,9 4,6 11 6 SW 1020,6 10
14.02.2018 12:00:00 17,5 4,3 8 4 SSW 1021,2 10
14.02.2018 11:00:00 16,9 5,2 11 6 NW 1021,6 10
14.02.2018 10:00:00 16,3 4,7 11 6 N 1021,4 10
14.02.2018 09:00:00 15,5 4,2 18 10 W 1020,9 10
14.02.2018 08:00:00 14,7 5,6 5 3 W 1020,4 10
14.02.2018 07:00:00 - - - - - - -
14.02.2018 06:00:00 - - - - - - -
14.02.2018 05:00:00 - - - - - - -
14.02.2018 04:00:00 - - - - - - -
14.02.2018 03:00:00 - - - - - - -
14.02.2018 02:00:00 14,5 6,5 11 6 SW 1018,8 10
14.02.2018 01:00:00 - - - - - - -
14.02.2018 00:00:00 - - - - - - -
13.02.2018 23:00:00 14,6 6,1 13 7 WSW 1018,8 10
13.02.2018 22:00:00 14,3 4,9 11 6 W 1019,0 10
13.02.2018 21:00:00 14,3 5,0 9 5 W 1018,8 10
13.02.2018 20:00:00 15,0 4,8 11 6 WSW 1018,6 10
13.02.2018 19:00:00 15,2 4,9 13 7 W 1017,4 10
13.02.2018 18:00:00 15,4 7,6 15 8 W 1016,4 10
13.02.2018 17:00:00 16,1 7,2 22 12 W 1015,8 10
13.02.2018 16:00:00 17,0 8,9 13 7 W 1015,0 10
13.02.2018 15:00:00 17,4 7,8 15 8 WSW 1014,4 10
13.02.2018 14:00:00 17,2 6,6 24 13 W 1013,8 10
13.02.2018 13:00:00 16,9 6,7 34 18 W 1013,6 10
13.02.2018 12:00:00 16,4 7,1 31 17 W 1014,1 10
13.02.2018 11:00:00 15,7 8,1 18 10 W 1014,7 10
13.02.2018 10:00:00 15,2 9,1 21 11 SW 1014,2 10
13.02.2018 09:00:00 12,5 7,6 11 6 SSW 1014,4 10
13.02.2018 08:00:00 12,3 8,0 34 18 WSW 1013,5 10
13.02.2018 07:00:00 14,8 7,3 8 4 W 1013,5 10

tt = temperature
td = dewpoint
ff = wind speed
dd = wind direction
ppp = reduced air pressure
vv = visibility

Next stations